THORAD DELTA 1 DEB, 14880

Orbit data source: Space-Track

THORAD DELTA 1 DEB, 14880 is space debris in SSO originally from a launch on Fri, 15 Nov 1974 UTC launched from the Air Force Western Test Range (AFWTR). Debris objects in space refer to the collection of defunct objects orbiting the Earth. Examples of debris include non-operational satellites, rocket bodies, and fragments generated from explosions, collisions, or faulty payload assembly.

Loading next visibility...
Identifier
14880, 1974-089ET
Orbit
SSO
Country
Flag of USUS
Related business
Manufacturer
Unknown
Mission
Spacecraft
Bus & Motor
Unknown
Mass
Unknown
Launch date (UTC)
1974-11-15 (51 years ago)
Launch vehicle
Unknown
Launch site
Air Force Western Test Range (AFWTR)
Object type
Payload
Rocket body
Debris
Shape & HBR
Unknown shape, 0.1 m
Radar Cross Section
Small (<0.1 m²)

Expand to show TLE details & history
Last TLE update: 1 day ago

TLE from 1 day ago
0 THORAD DELTA 1 DEB
1 14880U 74089ET  26034.84237672 -.00000019  00000-0  16853-3 0  9990
2 14880 101.2131 341.4933 0153185 275.2587 105.1419 12.30535912992998
Epoch: 2026-02-03T20:13Z
TLE epoch observation values (Epoch: 2026-02-03T20:13:01.348Z)
Latitude
21.65548°
Longitude
-100.27247°
Altitude
1,582.757 km
Speed
7.064 km/s
True Right ascension
22h 28m 00s
True Declination
21° 32' 60"
Sunlit
Object was in daylight at epoch
Visualization orbit readout
Latitude
Unknown
Longitude
Unknown
Altitude
Unknown
Speed
Unknown
Apparent Right ascension
Unknown
Apparent Declination
Unknown
Sunlit
N/A
Visualization observer readout
Local Sidereal Time
00:14:48
Azimuth
Unknown
Elevation
Unknown
Doppler factor
Unknown
Orbital elements
Apogee altitude
1,665.884 km
Perigee altitude
1,423.157 km
Semi-major axis
7,922.658 km
Eccentricity
0.01532
Inclination
101.2131°
RAAN
341.4933°
Arg. of periapsis
275.2587°
True anomaly
106.82765°
Mean anomaly
105.1419°
Eccentric anomaly
105.98565°
Mean motion
3.07777 °/min
Orbital period
116.97 mins
BSTAR
0.00016853
Loading maneuver chart data...
Computing Atmospheric mass density...
Loading historical data...
Loading historical data...
Loading historical data...
Loading historical data...
Loading historical data...
Loading historical data...
Loading historical data...

Documentation

Showing up to 5 results
|